Location: *
(37.2361°N, 119.1790°W)
Time: 03:59:13
(UTC+00:00)

Daily predictions for brighter satellites

Satellite Brightness Start Highest point End
(mag) Time Altitude Azimuth Time Altitude Azimuth Time Altitude Azimuth
Cosmos 1269 Rocket 4.1 02:22:48 10° NNW 02:28:08 88° WSW 02:33:26 10° SSE
Cosmos 2360 Rocket 2.5 02:23:37 10° N 02:29:04 47° ENE 02:34:29 10° SE
Ariane Rocket 3.3 02:31:59 10° SE 02:36:47 47° ENE 02:41:39 10° N
FREGAT/IRIS 4.3 02:36:55 10° ESE 02:38:37 15° ENE 02:40:20 10° NNE
Meteor 2-9 Rocket 4.5 02:33:28 10° SSE 02:39:01 49° E 02:44:31 10° NNE
Cosmos 1536 Rocket 4.1 02:36:51 10° NNE 02:40:51 35° ENE 02:44:49 10° SE
Cosmos 1833 4.4 02:36:10 10° SSW 02:41:53 83° WNW 02:47:36 10° NNE
YAOGAN 1 3.0 02:38:15 10° S 02:42:33 69° WSW 02:46:52 10° NNW
Cosmos 1441 Rocket 4.3 02:41:20 10° SE 02:44:25 23° E 02:47:29 10° NE
Cosmos 405 2.9 02:41:35 10° N 02:45:04 62° E 02:48:30 10° SSE
SL-16 R/B 3.2 02:40:20 10° NNW 02:45:48 50° WSW 02:51:14 10° S
COSMOS 2455 3.4 02:42:28 10° NNW 02:48:05 39° NE 02:53:28 11° ESE
Cosmos 1939 Rocket 2.8 02:44:44 10° SSE 02:48:32 57° ENE 02:52:20 10° N
Cosmos 1544 4.0 02:45:36 10° SSE 02:48:35 25° E 02:51:36 10° NE
SJ-6B 4.4 02:46:24 12° ESE 02:48:52 19° ENE 02:51:45 10° NNE
Cosmos 1025 Rocket 3.5 02:46:19 10° N 02:50:17 37° ENE 02:54:15 10° SSE
MONITOR-E 4.3 02:52:03 10° SSE 02:54:41 40° ENE 02:57:20 10° N
SAR-Lupe-2 3.6 02:54:09 10° NNE 02:57:39 52° E 03:01:09 10° S
Timation 2 Rocket 4.0 02:51:39 10° SSW 02:58:20 78° ESE 03:04:47 10° NNE
Genesis I 3.1 02:55:12 10° NNW 02:59:08 86° ENE 03:02:57 10° SSE
Cosmos 2151 Rocket 3.6 02:55:10 10° S 02:59:35 85° W 03:04:01 10° N
Nadezhda 1 Rocket 4.0 02:57:47 10° SSE 03:03:40 55° E 03:09:34 10° NNE
USA 186 2.9 03:02:38 21° ESE 03:03:48 26° ENE 03:06:41 10° NNE
Cosmos 2333 Rocket 3.1 02:59:41 10° N 03:04:44 31° ENE 03:08:00 18° ESE
Cosmos 1707 4.2 03:05:01 10° NNE 03:07:53 19° ENE 03:08:04 19° E
Cosmos 1300 Rocket 4.1 03:06:38 10° SSW 03:10:53 60° W 03:15:09 10° N
MOS 1 4.2 03:11:58 10° SSE 03:17:39 73° ENE 03:23:20 10° N
CZ-2D R/B 4.4 03:15:44 10° S 03:19:21 43° W 03:23:00 10° NNW
Lacrosse 4 Rocket 3.2 03:15:48 10° NW 03:19:22 30° WSW 03:22:54 10° S
Meteor 2-15 Rocket 4.4 03:14:39 10° S 03:20:47 80° E 03:26:56 10° N
Cosmos 2237 Rocket 3.8 03:17:42 10° NNE 03:21:24 17° NE 03:22:28 17° ENE
H-2A R/B 2.7 03:20:21 26° ESE 03:22:00 32° ENE 03:26:23 10° N
Cosmos 1378 3.7 03:18:27 10° NNW 03:22:10 60° W 03:25:51 10° S
Aureole 1 Rocket 3.3 03:17:57 10° N 03:23:04 52° ENE 03:24:53 30° SE
GEOS 3 Rocket 3.8 03:22:04 12° SSE 03:26:50 68° WSW 03:31:56 10° NW
SJ-11-01 4.2 03:25:24 14° SSE 03:29:30 73° ENE 03:34:16 10° N
Cosmos 1461 3.7 03:29:28 10° SW 03:33:24 50° WNW 03:37:16 10° NNE
GPS 2-05 Rocket1 3.0 03:30:52 10° W 03:33:15 42° SSW 03:33:15 42° SSW
Cosmos 2251 Rocket 3.6 03:28:34 10° NNW 03:33:58 82° WSW 03:38:39 14° SSE
Cosmos 2181 Rocket 4.4 03:34:25 25° SE 03:37:13 38° E 03:42:58 10° NNE
Cosmos 2341 Rocket 4.3 03:31:19 10° N 03:37:14 43° ENE 03:39:28 32° SE
DELTA 2 R/B (1) 4.1 03:34:14 10° SW 03:39:22 38° SSE 03:40:13 35° SE
Resurs 01 Rocket 3.0 03:40:10 24° NE 03:40:10 24° NE 03:43:00 10° NNE
Iridium 96 4.5 03:37:59 19° S 03:40:30 87° W 03:44:18 10° N
Resurs 1-3 4.4 03:41:42 34° ENE 03:41:42 34° ENE 03:45:21 10° N
Cosmos 2333 4.3 03:42:38 10° NNW 03:48:18 77° WSW 03:51:48 24° SSE
SL-16 R/B 4.3 03:47:24 10° NNE 03:48:41 11° NE 03:48:41 11° NE
Okean 1 Rocket 3.7 03:45:18 10° SSW 03:49:32 54° W 03:53:48 10° N
CZ-2C R/B 3.6 03:54:29 39° ENE 03:54:29 39° ENE 03:59:12 10° N
Meteor 1-15 Rocket 4.1 03:49:54 10° S 03:55:34 71° E 04:01:21 10° NNE
COSMOS 2428 2.6 03:50:06 10° NNW 03:55:48 84° ENE 03:57:47 43° SSE
Cosmos 2218 Rocket 4.5 03:55:30 10° N 04:01:21 40° ENE 04:01:21 40° ENE
Cosmos 2154 Rocket 4.3 03:56:34 10° NNW 04:02:42 67° W 04:08:45 10° S
Cosmos 2219 Rocket 2.1 03:57:18 10° NNW 04:02:55 88° WSW 04:04:34 48° SSE
ASTEX 1 4.3 04:00:37 10° N 04:05:18 47° W 04:09:57 10° SSW
Cosmos 2366 rocket 4.4 04:04:10 10° N 04:09:47 43° ENE 04:09:47 43° ENE
Cosmos 2360 Rocket 4.4 04:08:31 10° NW 04:12:39 21° W 04:16:47 10° SSW
ATLAS 2AS CENTAUR R/B 2.7 04:08:23 10° NNW 04:16:00 85° ENE 04:17:48 55° SE
Cosmos 2219 3.3 04:10:49 10° SSW 04:16:33 78° WNW 04:22:20 10° NNE
ADEOS Rocket 3.5 04:09:23 10° N 04:16:43 81° WNW 04:24:28 10° SSW
Cosmos 2227 Rocket 3.8 04:24:02 21° NNE 04:24:02 21° NNE 04:25:54 10° NNE
Cosmos 2056 Rocket 3.4 04:20:49 84° NE 04:20:49 84° NE 04:26:08 10° NNE
SL-8 Rocket 3.8 04:16:32 10° N 04:22:44 71° E 04:22:51 71° E
Okean 1-7 Rocket 4.4 04:20:27 10° N 04:23:32 45° N 04:23:32 45° N
Cosmos 2297 Rocket 3.4 04:34:39 30° NNE 04:34:39 30° NNE 04:37:23 10° NNE
Cosmos 1624 Rocket 4.3 04:34:01 63° NNW 04:34:01 63° NNW 04:38:37 10° NNE
COSMOS 2455 4.3 04:28:39 10° NW 04:33:50 31° WSW 04:36:40 21° SSW
Cosmos 407 Rocket 4.0 04:29:28 10° NNW 04:33:16 50° N 04:33:16 50° N
ARGOS 3.8 04:36:10 44° SW 04:37:10 49° W 04:42:23 10° NNW
Cosmos 1959 Rocket 4.5 04:32:09 10° N 04:37:31 67° NNE 04:37:31 67° NNE
Meteor 2-5 Rocket 4.1 04:41:39 10° N 04:46:17 59° N 04:46:17 59° N
Cosmos 2333 Rocket 3.5 04:43:53 10° NW 04:48:56 34° WSW 04:50:02 31° SW
H-2A R/B 3.8 05:00:59 24° WSW 05:01:26 24° W 05:05:27 10° NW
Cosmos 2237 Rocket 3.1 05:00:19 10° NNW 05:04:19 45° NW 05:04:19 45° NW
Resurs 01 Rocket 4.2 05:17:45 19° WNW 05:17:45 19° WNW 05:19:27 10° NW
NOSS 3-4 (A) 4.4 05:16:04 10° NW 05:22:25 53° W 05:22:25 53° W
NOSS 3-4 (C) 4.4 05:16:09 10° NW 05:22:29 53° W 05:22:29 53° W
SL-16 R/B 4.1 05:28:20 10° NNW 05:30:34 25° NNW 05:30:34 25° NNW
FALCON 9 R/B 4.4 05:35:48 10° WNW 06:03:23 57° SW 06:03:23 57° SW
Cosmos 2344 4.2 10:03:25 45° E 10:03:25 45° E 10:09:38 10° NE
CENTAUR R/B 3.9 10:26:15 28° ESE 10:26:15 28° ESE 10:31:16 10° NE
ADEOS II 3.8 10:25:26 10° NNE 10:27:57 29° NNE 10:27:57 29° NNE
USA 238 DEB 4.0 10:36:26 60° NNE 10:36:26 60° NNE 10:41:58 10° NNE
USA 238 4.0 10:36:32 61° NNE 10:36:32 61° NNE 10:42:06 10° NNE
Resurs 1-4 Rocket 4.5 10:33:45 10° N 10:34:28 13° NNW 10:34:28 13° NNW
Cosmos 1943 Rocket 2.9 10:49:10 48° ENE 10:49:10 48° ENE 10:53:44 10° NNE
Cosmos 2180 Rocket 4.5 10:54:27 10° N 11:00:23 78° N 11:00:23 78° N
Atlas Centaur 2 3.0 11:15:57 48° S 11:16:13 49° S 11:23:51 10° ESE
USA 215 3.5 11:12:23 10° NE 11:18:52 60° SE 11:20:43 44° S
Cosmos 1782 4.3 11:20:52 33° NNE 11:20:52 33° NNE 11:23:08 10° NNE
Cosmos 1092 Rocket 4.4 11:16:09 26° SSE 11:19:35 59° E 11:25:36 10° NNE
ADEOS 4.1 11:16:32 10° NNE 11:21:40 54° E 11:23:33 35° SSE
NOSS 3-2 (A) 3.8 11:21:55 47° NW 11:21:55 47° NW 11:27:50 10° NNE
NOSS 3-2 (C) 3.2 11:22:51 70° WNW 11:23:03 71° NW 11:29:25 10° NNE
Unknown 4.4 11:25:03 50° ENE 11:25:03 50° ENE 11:28:11 10° NE
Unknown 4.2 11:28:18 54° NE 11:28:18 54° NE 11:31:34 10° NE
Unknown 4.2 11:29:56 56° NE 11:29:56 56° NE 11:33:14 10° NE
Cosmos 1869 Rocket 4.3 11:24:39 10° N 11:27:47 45° N 11:27:47 45° N
Lacrosse 5 rocket 4.0 11:26:21 10° NNW 11:29:30 20° NE 11:32:45 10° E
Unknown 4.1 11:31:33 59° NE 11:31:33 59° NE 11:34:57 10° NE
Cosmos 1400 Rocket 3.9 11:30:26 37° ESE 11:31:08 41° E 11:34:48 10° NNE
Cosmos 967 Rocket 4.3 11:24:52 10° NNW 11:31:18 75° WSW 11:37:44 10° SSE
ATLAS 3B R/B 2.5 11:29:54 54° SW 11:31:34 87° WNW 11:38:11 10° NNE
Unknown 4.0 11:32:58 61° NE 11:32:58 61° NE 11:36:26 10° NE
Cosmos 1602 4.4 11:28:25 10° N 11:32:18 54° E 11:32:43 51° ESE
Unknown 3.9 11:34:55 63° NNE 11:34:55 63° NNE 11:38:27 10° NE
Cosmos 2369 Rocket 2.1 11:34:47 64° WSW 11:35:21 69° WNW 11:41:02 10° NNE
Hubble Space Telescope 2.8 11:36:31 18° SSE 11:36:31 18° SSE 11:38:27 10° ESE
Unknown 3.8 11:36:01 67° NE 11:36:01 67° NE 11:39:38 10° NE
SL-24 DEB 4.5 11:33:43 29° SSE 11:36:01 69° E 11:40:41 10° N
Unknown 3.7 11:39:14 70° NNE 11:39:14 70° NNE 11:42:59 10° NE
Unknown 3.7 11:40:51 71° NNE 11:40:51 71° NNE 11:44:39 10° NE
BREEZE-M DEB (TANK) 4.0 11:39:19 25° NNW 11:41:30 54° NE 11:53:18 10° ESE
ARIANE 5 R/B 4.2 11:37:37 10° NNW 11:39:48 19° NW 11:39:48 19° NW
Unknown 3.7 11:42:38 65° N 11:42:38 65° N 11:46:28 10° NE
Nadezhda 4 Rocket 4.0 11:41:51 50° WSW 11:42:47 55° W 11:48:47 10° N
Unknown 3.6 11:44:01 71° NNW 11:44:01 71° NNW 11:47:58 10° NE
Meteor 1-20 Rocket 4.1 11:38:35 10° NNW 11:43:55 55° W 11:44:10 55° WSW
Unknown 3.6 11:45:38 69° NNW 11:45:38 69° NNW 11:49:36 10° NE
Cosmos 836 Rocket 4.5 11:47:04 55° W 11:47:38 59° WNW 11:52:48 10° N
Unknown 3.6 11:48:47 66° NW 11:48:47 66° NW 11:52:54 10° NE
Unknown 3.6 11:50:23 63° NW 11:50:26 63° NW 11:54:34 10° NE
Cosmos 1656 Rocket 4.0 11:47:47 22° S 11:51:28 67° ESE 11:57:06 10° NNE
Unknown 3.6 11:51:59 61° NW 11:52:06 61° NW 11:56:12 10° NE
Unknown 3.8 11:53:04 53° NW 11:53:08 53° NW 11:57:10 10° NE
Unknown 3.7 11:53:36 58° NW 11:53:47 59° NW 11:57:53 10° NE
Unknown 4.1 11:54:25 43° NW 11:54:27 43° NW 11:58:20 10° NE
